ATLAS CENTAUR 2 1 00694U 63047A 25343.47099578 .00004498 00000+0 54237-3 0 9993 2 00694 30.3561 339.7165 0549019 5.3751 355.2453 14.11731556118867 THOR AGENA D R/B 1 00733U 64002A 25343.51266030 .00000413 00000+0 16463-3 0 9995 2 00733 99.1216 346.9568 0033222 159.5033 200.7492 14.33956693225374 SL-3 R/B 1 00877U 64053B 25343.42422335 .00000689 00000+0 15829-3 0 9992 2 00877 65.0768 235.8519 0073590 321.4470 38.1386 14.61271810253600 SL-8 R/B 1 02802U 67045B 25343.47082300 .00000730 00000+0 20944-3 0 9996 2 02802 74.0096 156.5668 0064467 186.6582 173.3728 14.45531923 75987 SL-8 R/B 1 03230U 68040B 25343.44433944 .00005949 00000+0 44784-3 0 9994 2 03230 74.0303 137.9848 0025235 340.2355 19.7853 15.02488255 76451 OAO 2 1 03597U 68110A 25343.61430871 .00000560 00000+0 15618-3 0 9991 2 03597 34.9943 48.1071 0005663 200.8688 159.1772 14.47241495 6044 ISIS 1 1 03669U 69009A 25343.51937586 .00000345 00000+0 25133-3 0 9997 2 03669 88.4485 165.1487 1706852 271.2069 69.4891 11.30352481338347 SERT 2 1 04327U 70009A 25343.58982369 .00000067 00000+0 14785-3 0 9999 2 04327 99.2645 286.6662 0005491 41.5504 131.5071 13.58716973767656 SL-3 R/B 1 05118U 71028B 25343.58545341 .00034801 00000+0 52864-3 0 9998 2 05118 81.2374 162.7044 0019351 251.7911 108.1232 15.54181368974640 ASTEX 1 1 05560U 71089A 25343.66987484 .00001017 00000+0 25900-3 0 9997 2 05560 92.7136 122.6258 0016777 35.6063 324.6259 14.50637232849255 SL-8 R/B 1 05730U 71119B 25343.48164033 .00017074 00000+0 89047-3 0 9999 2 05730 73.8887 344.0638 0559706 328.9853 27.9324 14.35609869642534 OAO 3 (COPERNICUS) 1 06153U 72065A 25343.59119125 .00000763 00000+0 16121-3 0 9994 2 06153 35.0056 90.6011 0006177 147.7268 229.8653 14.59902324833029 ATLAS CENTAUR R/B 1 06155U 72065B 25343.48346205 .00002386 00000+0 32997-3 0 9997 2 06155 35.0006 114.2713 0034280 330.3994 29.4767 14.77395084827910 SL-8 R/B 1 08459U 75112B 25343.56114668 .00000476 00000+0 16531-3 0 9991 2 08459 74.0594 184.7049 0016548 296.3614 63.5841 14.38142204618916 SL-3 R/B 1 10114U 77057B 25343.57812613 .00016613 00000+0 38062-3 0 9991 2 10114 97.5687 146.7833 0006410 246.0267 114.0309 15.42827822654421 SEASAT 1 1 10967U 78064A 25343.63849964 .00000841 00000+0 27383-3 0 9992 2 10967 108.0111 296.5277 0001710 249.8646 110.2315 14.46056782493498 SL-14 R/B 1 11267U 79011B 25343.30007647 .00000990 00000+0 95528-4 0 9999 2 11267 82.5237 182.3065 0016229 4.9465 355.1911 14.91763760515302 SL-8 R/B 1 11574U 79089B 25343.50687823 .00000578 00000+0 18291-3 0 9990 2 11574 74.0693 257.9622 0014440 93.7192 266.5616 14.42280666423107 SL-14 R/B 1 11672U 80005B 25343.38803835 .00001051 00000+0 10404-3 0 9993 2 11672 82.5153 32.8782 0017297 103.6226 256.6921 14.90786328463034 SL-8 R/B 1 12139U 81003B 25343.48395866 .00019856 00000+0 52720-3 0 9991 2 12139 82.9289 13.1997 0280122 131.4231 231.1441 15.06891840301075 SL-3 R/B 1 12465U 81046B 25343.57466682 .00014187 00000+0 35825-3 0 9994 2 12465 81.2329 37.7240 0019087 335.7552 24.2789 15.39504770424556 SL-3 R/B 1 12904U 81103B 25343.56643948 .00009164 00000+0 42154-3 0 9999 2 12904 81.1590 319.0698 0011348 224.8868 135.1446 15.20170005959539 SL-3 R/B 1 13068U 82013B 25343.61735228 .00007048 00000+0 31392-3 0 9992 2 13068 81.1748 266.2637 0024022 120.5972 239.7633 15.21037826390658 SL-3 R/B 1 13154U 82039B 25343.59009507 .00004915 00000+0 30222-3 0 9998 2 13154 81.1728 319.7203 0029846 263.0571 96.7259 15.09496281368045 SL-3 R/B 1 13403U 82079B 25343.59412597 .00008065 00000+0 33316-3 0 9993 2 13403 81.1472 299.3684 0026983 109.0795 251.3364 15.23529488363975 SL-14 R/B 1 13553U 82092B 25343.19106601 .00000748 00000+0 81469-4 0 9999 2 13553 82.5688 226.0304 0019001 239.6808 238.7982 14.86549856315486 SL-3 R/B 1 13819U 83010B 25343.46555775 .00018981 00000+0 42272-3 0 9991 2 13819 81.1040 112.6150 0017355 2.5094 357.6232 15.43320263344014 SL-3 R/B 1 14208U 83075B 25343.59529495 .00014051 00000+0 39930-3 0 9990 2 14208 97.6109 339.9731 0022400 186.6529 173.4420 15.36034726316311 COSMOS 1536 1 14699U 84013A 25343.06006347 .00007030 00000+0 30180-3 0 9992 2 14699 82.5455 197.8137 0013367 239.9466 120.0445 15.22455565258826 SL-14 R/B 1 14820U 84027B 25343.45777872 .00000970 00000+0 10845-3 0 9996 2 14820 82.5410 329.6342 0016384 272.7438 87.1903 14.85869416234235 SL-8 R/B 1 15483U 85006B 25343.54093846 .00000476 00000+0 16665-3 0 9999 2 15483 74.0466 67.0199 0018536 0.0665 11.3183 14.37718554141077 SL-12 R/B(2) 1 15772U 85042D 25343.60211906 .00000298 00000+0 15562-3 0 9993 2 15772 71.1086 278.0483 0037665 266.1305 266.6665 14.21950666101581 SL-14 R/B 1 15945U 85069B 25343.60466935 .00001069 00000+0 11827-3 0 9995 2 15945 82.5265 109.6500 0019990 128.2181 232.0839 14.86319049159452 SL-16 R/B 1 16182U 85097B 25343.39889142 .00000158 00000+0 10327-3 0 9997 2 16182 71.0030 330.6367 0006468 16.2142 89.9320 14.16582261 74445 SL-14 R/B 1 16496U 86006B 25343.46921203 .00001170 00000+0 12232-3 0 9991 2 16496 82.5264 344.6288 0075896 210.7677 148.9081 14.86665812135800 COSMOS 1743 1 16719U 86034A 25343.62412061 .00034280 00000+0 56983-3 0 9994 2 16719 82.5347 167.8274 0004650 267.3646 92.7074 15.51895120166255 SL-14 R/B 1 16792U 86046B 25343.48126538 .00000916 00000+0 10294-3 0 9997 2 16792 82.4811 165.3916 0023515 162.7487 197.4534 14.85479643113013 SL-14 R/B 1 16882U 86055B 25343.15317137 .00000864 00000+0 97087-4 0 9996 2 16882 82.5208 211.7428 0017463 272.3667 204.2461 14.85526142105925 AJISAI (EGS) 1 16908U 86061A 25343.61608890 -.00000091 00000+0 44671-4 0 9996 2 16908 50.0114 10.3223 0011291 58.0841 33.7630 12.44514226456781 COSMOS 1812 1 17295U 87003A 25343.36320216 .00110817 00000+0 75157-3 0 9997 2 17295 82.4870 295.6692 0007273 91.9685 268.2412 15.74593219130129 SL-14 R/B 1 17567U 87024B 25343.48003844 .00000852 00000+0 94448-4 0 9992 2 17567 82.5277 177.5167 0017798 195.1865 164.8820 14.86018977 74731 COSMOS 1833 1 17589U 87027A 25343.46139069 .00000112 00000+0 85500-4 0 9994 2 17589 70.9134 155.6691 0022396 336.3021 23.7066 14.13020250997567 SL-16 R/B 1 17590U 87027B 25343.62612272 -.00000089 00000+0 -20334-4 0 9995 2 17590 71.0026 106.2788 0007481 262.8300 97.1974 14.17152186 2581 SL-14 R/B 1 17912U 87038B 25343.49603747 .00000783 00000+0 88109-4 0 9990 2 17912 82.5019 21.7562 0020856 102.0277 258.3278 14.85257173 65841 COSMOS 1844 1 17973U 87041A 25343.37976970 -.00000112 00000+0 -33020-4 0 9999 2 17973 70.8982 224.6581 0030169 162.4934 197.7235 14.14526375990818 SL-14 R/B 1 18153U 87055B 25343.35376572 .00000945 00000+0 10634-3 0 9992 2 18153 82.5001 74.1793 0019591 315.2128 44.7506 14.85516324 56527 COSMOS 1867 1 18187U 87060A 25343.31933282 .00000032 00000+0 49823-4 0 9998 2 18187 65.0096 199.7813 0013640 270.7607 89.1915 14.31485392 7004 SL-14 R/B 1 18749U 88001B 25343.54521207 .00000911 00000+0 10266-3 0 9997 2 18749 82.5130 280.1519 0018176 171.5230 188.6297 14.85418878 28643 COSMOS 1933 1 18958U 88020A 25343.45500168 .00006052 00000+0 30418-3 0 9996 2 18958 82.5137 340.1244 0005511 136.9597 223.2068 15.17067925 36543 SL-3 R/B 1 19046U 88032B 25343.56716901 .00008005 00000+0 38574-3 0 9995 2 19046 97.5083 322.3094 0026378 184.0439 176.0586 15.18691173 38424 SL-16 R/B 1 19120U 88039B 25343.50565564 .00000132 00000+0 85098-4 0 9993 2 19120 71.0153 259.2363 0019787 121.7457 238.5599 14.19596353945589 COSMOS 1953 1 19210U 88050A 25343.49321980 .00009453 00000+0 35585-3 0 9996 2 19210 82.5091 248.8385 0013855 81.5324 278.7484 15.26880002 24012 SL-8 R/B 1 19257U 88053B 25343.28246118 .00000524 00000+0 17851-3 0 9992 2 19257 74.0478 279.0911 0019058 124.5425 348.6927 14.38856123963593 COSMOS 1975 1 19573U 88093A 25343.37207352 .00010610 00000+0 40556-3 0 9999 2 19573 82.5203 208.2000 0012711 123.1596 237.0864 15.26395679 5624 SL-14 R/B 1 19574U 88093B 25343.66718486 .00000959 00000+0 10788-3 0 9996 2 19574 82.5302 126.5506 0020191 339.9700 30.2994 14.85544253987672 SL-16 R/B 1 19650U 88102B 25343.42110551 -.00000128 00000+0 -40660-4 0 9998 2 19650 70.9997 341.4262 0013101 157.5833 202.5866 14.16136443914112 INTERCOSMOS 24 1 20261U 89080A 25343.48688869 .00001668 00000+0 48524-3 0 9996 2 20261 82.6043 163.0678 1188798 142.0630 227.0596 12.59431138655447 SL-14 R/B 1 20262U 89080C 25343.54409511 .00000683 00000+0 20008-3 0 9992 2 20262 82.5933 231.0719 1230708 30.8895 335.9022 12.50409955648889 DELTA 1 R/B 1 20323U 89089B 25343.46668591 .00000668 00000+0 17384-3 0 9991 2 20323 97.0755 200.2230 0070309 48.4675 312.2525 14.50568660882657 ARIANE 40 R/B 1 20443U 90005H 25343.47298002 .00000626 00000+0 21296-3 0 9992 2 20443 98.3246 41.7431 0011211 114.6201 245.6157 14.39795404879828 DELTA 2 R/B(1) 1 20453U 90008B 25343.52011922 .00055086 00000+0 89206-3 0 9991 2 20453 35.6071 41.3194 0111678 149.2134 211.5209 15.44832814912134 COSMOS 2058 1 20465U 90010A 25343.44556955 .00007347 00000+0 44511-3 0 9995 2 20465 82.4656 136.2707 0008256 287.1852 72.8474 15.10419561928611 SL-14 R/B 1 20466U 90010B 25343.50778462 .00000817 00000+0 96388-4 0 9997 2 20466 82.5019 352.0827 0018525 234.4589 125.4899 14.83467077915110 SL-14 R/B 1 20511U 90018B 25343.37140230 .00000944 00000+0 11575-3 0 9992 2 20511 82.5207 307.5129 0017279 33.9532 326.2785 14.82041472909209 HST 1 20580U 90037B 25343.19989289 .00010184 00000+0 35435-3 0 9992 2 20580 28.4695 296.5825 0001856 196.3317 163.7219 15.27973320759456 SL-16 R/B 1 20625U 90046B 25343.49405939 .00000068 00000+0 59756-4 0 9993 2 20625 70.9988 127.3373 0011843 79.2982 280.9474 14.15001203835634 COSMOS 2084 1 20663U 90055A 25343.57810136 .00005029 00000+0 36282-3 0 9993 2 20663 62.7911 282.7658 0032240 174.3470 185.8001 15.04987649922751 SL-6 R/B(2) 1 20666U 90055D 25343.57395214 .00003190 00000+0 24973-3 0 9992 2 20666 62.7823 200.1728 0012398 306.4526 53.5430 15.03054750924644 SL-8 R/B 1 20775U 90078B 25343.49868269 .00028669 00000+0 88772-3 0 9999 2 20775 82.9048 332.2109 0373094 316.8230 40.4272 14.85733628795897 SL-8 R/B 1 21088U 91006B 25343.50486793 .00000104 00000+0 89128-4 0 9990 2 21088 82.9431 237.1188 0021327 289.4323 244.2714 13.77489533751652 OKEAN-3 1 21397U 91039A 25343.48889389 .00005161 00000+0 37025-3 0 9990 2 21397 82.5168 64.1937 0012820 278.4873 81.4900 15.04083746851471 COSMOS 2151 1 21422U 91042A 25343.62069849 .00003032 00000+0 24348-3 0 9999 2 21422 82.4961 170.5092 0012814 10.0673 350.0805 14.99670272849694 SL-14 R/B 1 21423U 91042B 25343.60809145 .00000814 00000+0 10012-3 0 9997 2 21423 82.4923 304.6597 0017161 171.8472 188.3024 14.81734586839735 ERS-1 1 21574U 91050A 25343.46971246 .00000595 00000+0 20503-3 0 9991 2 21574 98.7905 354.4427 0032957 109.4272 251.0481 14.39360896802751 ARIANE 40 R/B 1 21610U 91050F 25343.38835803 .00000696 00000+0 22132-3 0 9993 2 21610 98.2168 33.9397 0002992 11.0822 349.0434 14.42809610805977 INTERCOSMOS 25 1 21819U 91086A 25343.49808137 .00002492 00000+0 49487-3 0 9993 2 21819 82.6073 4.5358 1486829 311.3852 36.8330 12.11712345485765 SL-8 R/B 1 21876U 92008B 25343.48972973 .00000181 00000+0 16988-3 0 9993 2 21876 82.9263 334.8640 0035381 28.7168 81.7589 13.75957947697014 SL-8 R/B 1 21938U 92020B 25343.44479013 .00000138 00000+0 12699-3 0 9996 2 21938 82.9310 220.7642 0028678 187.4440 345.5330 13.75526266688727 USA 81 1 21949U 92023A 25343.47118529 .00000312 00000+0 10817-3 0 9990 2 21949 85.0083 183.4614 0001544 63.2380 296.8971 14.32325259 81876 COSMOS 2219 1 22219U 92076A 25343.32912881 -.00000100 00000+0 -27461-4 0 9997 2 22219 71.0587 206.9626 0019032 331.4362 28.5716 14.14062715705602 SL-16 R/B 1 22220U 92076B 25343.47754833 -.00000139 00000+0 -45444-4 0 9999 2 22220 71.0010 18.4042 0014917 238.6090 223.2978 14.16841244709057 COSMOS 2221 1 22236U 92080A 25343.47296396 .00003373 00000+0 29984-3 0 9997 2 22236 82.5044 5.4520 0015840 131.6783 228.5797 14.95741864767305 SL-16 R/B 1 22285U 92093B 25343.28120860 .00000224 00000+0 13896-3 0 9993 2 22285 71.0202 194.0560 0002086 82.2848 277.8511 14.15427072700366 COSMOS 2228 1 22286U 92094A 25343.61499118 .00003928 00000+0 34101-3 0 9993 2 22286 82.5179 323.5241 0016358 242.8435 117.1120 14.96706314762587 SL-16 R/B 1 22566U 93016B 25343.45395658 -.00000146 00000+0 -50617-4 0 9997 2 22566 71.0087 44.7051 0007840 103.9219 256.2776 14.15287344689402 COSMOS 2242 1 22626U 93024A 25343.49228068 .00003404 00000+0 30009-3 0 9997 2 22626 82.5188 352.9486 0014824 246.2238 113.7430 14.96085598766907 SL-16 R/B 1 22803U 93059B 25343.55593538 .00000062 00000+0 54235-4 0 9991 2 22803 70.9896 201.2000 0017807 340.1398 19.9030 14.17213552666766 ARIANE 40 R/B 1 22830U 93061H 25343.47575597 .00000535 00000+0 21192-3 0 9990 2 22830 98.5080 49.0651 0010686 185.5698 174.5369 14.32798567681186 COSMOS 2278 1 23087U 94023A 25343.49472109 -.00000108 00000+0 -31843-4 0 9994 2 23087 71.0545 3.8004 0008488 184.9129 175.1912 14.14351144632051 SL-16 R/B 1 23088U 94023B 25343.51166305 .00000201 00000+0 12818-3 0 9998 2 23088 71.0010 260.2644 0001207 40.0639 320.0573 14.15002139633332 SL-16 R/B 1 23343U 94074B 25343.35106870 .00000926 00000+0 13107-3 0 9997 2 23343 97.7204 12.7902 0007306 145.5563 225.8118 14.79284166673890 SL-16 R/B 1 23405U 94077B 25343.31643781 .00000260 00000+0 15727-3 0 9993 2 23405 70.9812 182.6156 0004597 286.6616 73.4002 14.15547587603442 ARIANE 40+ R/B 1 23561U 95021B 25343.19154116 .00000506 00000+0 17569-3 0 9990 2 23561 98.4654 50.8231 0007610 59.2908 358.8760 14.39691045606226 SL-16 R/B 1 23705U 95058B 25343.46029606 .00000224 00000+0 13888-3 0 9992 2 23705 71.0225 9.6896 0014939 259.3406 100.6035 14.15482917555089 SL-16 R/B 1 24298U 96051B 25343.51408912 .00000042 00000+0 49514-4 0 9995 2 24298 70.7595 6.1120 0019341 265.2914 94.5997 14.12396196508915 ORBVIEW 2 (SEASTAR) 1 24883U 97037A 25343.43000916 .00000627 00000+0 23462-3 0 9995 2 24883 98.8455 140.4212 0001814 352.6588 7.4569 14.35413712495528 SL-16 R/B 1 25400U 98043G 25343.57081076 .00000173 00000+0 91600-4 0 9996 2 25400 98.8120 291.3712 0008810 277.0903 82.9275 14.26024451426140 SL-16 R/B 1 25407U 98045B 25343.51554985 -.00000139 00000+0 -46265-4 0 9994 2 25407 71.0122 11.2076 0007094 182.8298 177.2786 14.16175833414330 ISS (ZARYA) 1 25544U 98067A 25343.50984768 .00014141 00000+0 26026-3 0 9993 2 25544 51.6310 158.4724 0003400 223.8185 136.2534 15.49447168542357 CZ-4B R/B 1 25732U 99025C 25343.35288800 .00000142 00000+0 89738-4 0 9990 2 25732 98.6772 24.7086 0036189 243.9824 126.5056 14.18242373375360 OKEAN-O 1 25860U 99039A 25343.13909267 .00001190 00000+0 16363-3 0 9997 2 25860 97.9606 38.8718 0000790 90.1743 269.9559 14.80151028420994 SL-16 R/B 1 25861U 99039B 25343.13763401 .00000997 00000+0 13359-3 0 9992 2 25861 98.0129 37.2885 0014642 186.4384 173.6643 14.81577920423459 DELTA 2 R/B 1 25876U 99041E 25343.10227775 .00001223 00000+0 23672-3 0 9999 2 25876 51.7619 302.9663 0504750 81.0451 284.7245 14.11385999350233 HELIOS 1B 1 25977U 99064A 25343.43957862 .00003424 00000+0 38635-3 0 9999 2 25977 98.1752 238.0073 0001891 47.3890 312.7484 14.87261392671845 TERRA 1 25994U 99068A 25343.67072497 .00000825 00000+0 17776-3 0 9995 2 25994 97.9753 35.4679 0003580 100.4123 59.1507 14.60896861381932 SL-16 R/B 1 26070U 00006B 25343.29561152 .00000061 00000+0 55527-4 0 9993 2 26070 71.0032 287.8987 0018339 313.3879 46.5716 14.15810664335766 TITAN 4B R/B 1 26474U 00047B 25343.42836087 .00005625 00000+0 35936-3 0 9995 2 26474 67.9903 294.1546 0039179 148.5722 211.7780 15.08742252379290 ENVISAT 1 27386U 02009A 25343.65905429 .00000275 00000+0 10286-3 0 9997 2 27386 98.3594 294.4777 0001140 82.1616 90.8271 14.38997564246225 IDEFIX & ARIANE 42P R/B 1 27422U 02021B 25343.57652816 .00000596 00000+0 24328-3 0 9990 2 27422 98.5781 278.3085 0012931 92.1217 268.1447 14.30947006231134 AQUA 1 27424U 02022A 25343.61945578 .00001938 00000+0 39802-3 0 9992 2 27424 98.4034 304.4479 0000969 114.0640 0.8325 14.61798113255573 CZ-4B R/B 1 27432U 02024C 25343.38176988 .00000139 00000+0 94924-4 0 9997 2 27432 98.9001 32.1650 0049165 279.6367 90.4859 14.14526983216477 MIDORI II (ADEOS-II) 1 27597U 02056A 25343.49500935 .00000545 00000+0 23220-3 0 9990 2 27597 98.7631 296.4343 0000043 63.7448 296.3738 14.29202654197411 H-2A R/B 1 27601U 02056E 25343.63140301 .00000639 00000+0 23847-3 0 9998 2 27601 98.3061 302.5119 0071449 70.2551 102.0327 14.33672405201206 CZ-4B R/B 1 28059U 03049C 25343.43205419 .00000730 00000+0 17889-3 0 9990 2 28059 98.6786 329.8711 0048839 146.0149 214.4192 14.54905026173479 CZ-2C R/B 1 28222U 04012C 25343.58703517 .00044669 00000+0 65666-3 0 9996 2 28222 97.7424 35.9479 0016654 282.8127 77.1265 15.55189063190236 SL-16 R/B 1 28353U 04021B 25343.51012892 -.00000172 00000+0 -64529-4 0 9994 2 28353 71.0021 61.7427 0005472 205.3188 154.7667 14.14581661110089 CZ-4B R/B 1 28415U 04035C 25343.35109361 .00011202 00000+0 41560-3 0 9991 2 28415 97.3611 13.7402 0031723 290.1836 69.5992 15.27282823166116 CZ-2C R/B 1 28480U 04046B 25343.52309101 .00000345 00000+0 14275-3 0 9997 2 28480 98.1988 259.1009 0140602 61.7461 299.7831 14.26938329 95641 ARIANE 5 R/B 1 28499U 04049H 25343.41829927 .00001941 00000+0 22108-3 0 9998 2 28499 98.2521 143.5805 0083394 283.8975 75.2972 14.85000547132390 CZ-2D R/B 1 28738U 05024B 25343.50036912 .00037385 00000+0 60052-3 0 9993 2 28738 97.3635 350.8622 0005988 17.9337 342.2126 15.52920928125752 ALOS (DAICHI) 1 28931U 06002A 25343.63128495 .00002513 00000+0 43232-3 0 9993 2 28931 98.1091 295.1404 0001009 112.9447 247.1865 14.69473065 60257 H-2A R/B 1 28932U 06002B 25343.61405995 .00014393 00000+0 75732-3 0 9994 2 28932 98.2316 118.1074 0054500 187.0265 173.0207 15.14465512 80798 RESURS-DK 1 1 29228U 06021A 25343.52287808 .00004441 00000+0 26305-3 0 9990 2 29228 69.9337 110.1512 0007546 262.0089 98.0220 15.12133903 73898 CZ-4B R/B 1 29507U 06046C 25343.53453980 .00008319 00000+0 43283-3 0 9996 2 29507 97.5734 23.6812 0033060 218.1046 141.7849 15.15820660 46385 CZ-2C R/B 1 31114U 07010B 25343.54833616 .00000343 00000+0 17694-3 0 9990 2 31114 98.3974 96.3598 0058798 195.2997 164.6404 14.20208161966923 COSMO-SKYMED 1 1 31598U 07023A 25343.57709735 .00005788 00000+0 52482-3 0 9999 2 31598 97.8835 168.9559 0001048 83.3392 276.7948 14.95727092 1439 COSMOS 2428 1 31792U 07029A 25343.48166704 .00000119 00000+0 89556-4 0 9990 2 31792 70.9369 32.7207 0003478 28.4644 331.6667 14.12888699951350 SL-16 R/B 1 31793U 07029B 25343.49949418 -.00000149 00000+0 -52504-4 0 9991 2 31793 70.9759 1.9696 0002290 263.4952 203.4719 14.14814942952614 KORONAS-FOTON 1 33504U 09003A 25343.50795707 .00016690 00000+0 40156-3 0 9994 2 33504 82.4308 9.4539 0013086 118.5403 241.7162 15.41069929931846 CZ-2C R/B 1 37731U 11030B 25343.64181472 .00002846 00000+0 36704-3 0 9998 2 37731 97.8413 297.8169 0051406 284.0022 249.3932 14.80886549776769 H-2A R/B 1 38341U 12025E 25343.62671172 .00005975 00000+0 55042-3 0 9992 2 38341 98.4598 298.6167 0043621 246.5786 113.0843 14.94417638734761 SHIJIAN-16 (SJ-16) 1 39358U 13057A 25343.58481145 .00001233 00000+0 12423-3 0 9990 2 39358 74.9728 355.6249 0017477 327.2278 32.7825 14.91970221658066 SL-4 R/B 1 39679U 14021B 25343.62420955 .00017782 00000+0 42110-3 0 9997 2 39679 51.6070 55.7340 0102054 134.9647 225.9668 15.36549404642411 ALOS-2 1 39766U 14029A 25343.56427975 .00005758 00000+0 77734-3 0 9994 2 39766 97.9228 78.4559 0001523 99.7779 260.3605 14.79464767623544 YAOGAN-29 1 41038U 15069A 25343.64817727 .00000981 00000+0 12782-3 0 9996 2 41038 98.0217 6.8095 0000423 353.9016 6.2191 14.82878684542533 ASTRO-H (HITOMI) 1 41337U 16012A 25343.05291826 .00004259 00000+0 25469-3 0 9996 2 41337 30.9983 221.1410 0009501 141.6857 218.4457 15.09316337538522 HXMT (HUIYAN) 1 42758U 17034A 25343.62873341 .00005570 00000+0 29157-3 0 9995 2 42758 43.0126 156.8914 0031902 23.3271 336.9017 15.16204704468862 CZ-2C R/B 1 43521U 18054D 25342.92823374 .00113010 00000+0 77893-3 0 9999 2 43521 35.1323 206.7289 0015953 103.6735 256.5775 15.73090809414453 SAOCOM 1A 1 43641U 18076A 25343.63392566 .00000848 00000+0 11303-3 0 9997 2 43641 97.8843 168.1013 0001537 83.7302 276.4086 14.82153131388021 H-2A R/B 1 43682U 18084L 25343.50305722 .00026585 00000+0 72197-3 0 9999 2 43682 98.8777 176.9117 0027650 337.7048 22.2988 15.37188706391904 SAOCOM 1B 1 46265U 20059A 25343.59767074 .00000623 00000+0 84817-4 0 9993 2 46265 97.8837 167.1660 0001253 84.6974 275.4382 14.82153571285400 CSS (TIANHE) 1 48274U 21035A 25343.57586176 .00032682 00000+0 41053-3 0 9994 2 48274 41.4682 35.9133 0008959 5.1145 354.9784 15.58965688263533 COSMOS 2550 1 48865U 21056A 25343.33525535 .00000017 00000+0 63535-5 0 9997 2 48865 67.1455 314.2314 0008326 269.7288 90.2912 15.33838976249607 CZ-2C R/B 1 52794U 22058K 25343.51591492 .00033033 00000+0 59513-3 0 9994 2 52794 50.1909 59.9873 0045697 185.0920 174.9589 15.48276110196138 CZ-2C R/B 1 54039U 22132E 25343.51700420 .00038510 00000+0 57764-3 0 9995 2 54039 97.2948 339.6541 0023455 67.6851 292.6887 15.54501286176334 GSLV R/B 1 54149U 22138AN 25343.57841437 .00003672 00000+0 32232-3 0 9997 2 54149 87.3825 196.5329 0023936 115.9190 244.4512 14.96105407170458 XRISM 1 57800U 23137A 25343.46369165 .00007258 00000+0 42644-3 0 9997 2 57800 31.0005 146.6949 0007704 212.4251 147.5915 15.10287393124137 ACS3 1 59588U 24077B 25343.43170805 .00025410 00000+0 21821-1 0 9996 2 59588 97.2713 299.7763 0077942 345.8257 14.0717 13.85223484 81685 SZ-21 MODULE 1 66515U 25246C 25343.47095092 .00032351 00000+0 35876-3 0 9990 2 66515 41.4772 35.9831 0006286 242.4237 117.5964 15.62240002 3935